Zurück zum Katalog

COSMOS 2242

AktivMilitärPO
NORAD 22626·PAYLOAD·🇷🇺 Russia

Gestartet Apr 16, 1993 von Plesetsk Cosmodrome

Loading…

Nächste Überflüge (nächste 24 Stunden)

TLE

AktuellSource: Space-Track

Epoche: Sep 14, 2026, 00:18 UTC

1 22626U 93024A   26257.01251853  .00001231  00000-0  10411-3 0  9990
2 22626  82.5151  86.5399 0016997  35.8274 324.4085 14.97125844808561

Verfolge COSMOS 2242 in Echtzeit mit AllMySat

Download on the App Store